TimePDT,TemperatureF,Dew PointF,Humidity,Sea Level PressureIn,VisibilityMPH,Wind Direction,Wind SpeedMPH,Gust SpeedMPH,PrecipitationIn,Events,Conditions,WindDirDegrees,DateUTC
12:53 AM,33.1,19.9,59,30.27,10.0,ESE,5.8,-,N/A,,Clear,120,2013-10-15 07:53:00
1:53 AM,32.0,21.0,64,30.28,10.0,ESE,3.5,-,N/A,,Clear,120,2013-10-15 08:53:00
2:53 AM,32.0,21.9,66,30.27,10.0,SE,5.8,-,N/A,,Clear,130,2013-10-15 09:53:00
3:53 AM,32.0,21.9,66,30.27,10.0,SE,4.6,-,N/A,,Clear,130,2013-10-15 10:53:00
4:53 AM,33.1,21.9,64,30.26,10.0,SE,4.6,-,N/A,,Clear,140,2013-10-15 11:53:00
5:53 AM,32.0,21.9,66,30.27,10.0,SSE,4.6,-,N/A,,Clear,160,2013-10-15 12:53:00
6:53 AM,32.0,23.0,69,30.27,10.0,South,4.6,-,N/A,,Clear,170,2013-10-15 13:53:00
7:53 AM,34.0,21.9,61,30.27,10.0,Calm,Calm,-,N/A,,Clear,0,2013-10-15 14:53:00
8:53 AM,36.0,21.9,57,30.26,10.0,Calm,Calm,-,N/A,,Clear,0,2013-10-15 15:53:00
9:53 AM,36.0,21.0,55,30.26,10.0,WNW,4.6,-,N/A,,Clear,290,2013-10-15 16:53:00
10:53 AM,37.0,21.9,54,30.24,10.0,NW,4.6,-,N/A,,Clear,320,2013-10-15 17:53:00
11:53 AM,39.0,21.9,50,30.22,10.0,Variable,3.5,-,N/A,,Clear,0,2013-10-15 18:53:00
12:53 PM,39.9,23.0,51,30.20,10.0,Variable,3.5,-,N/A,,Clear,0,2013-10-15 19:53:00
1:53 PM,41.0,24.1,51,30.17,10.0,Calm,Calm,-,N/A,,Clear,0,2013-10-15 20:53:00
2:53 PM,41.0,23.0,49,30.15,10.0,NNW,3.5,-,N/A,,Clear,330,2013-10-15 21:53:00
3:53 PM,39.0,24.1,55,30.15,10.0,NW,4.6,-,N/A,,Clear,320,2013-10-15 22:53:00
4:53 PM,37.0,24.1,59,30.15,10.0,Variable,4.6,-,N/A,,Clear,0,2013-10-15 23:53:00
5:53 PM,34.0,25.0,70,30.15,10.0,WNW,3.5,-,N/A,,Clear,300,2013-10-16 00:53:00
6:53 PM,34.0,25.0,70,30.14,10.0,Variable,3.5,-,N/A,,Clear,0,2013-10-16 01:53:00
7:53 PM,34.0,25.0,70,30.12,10.0,WSW,4.6,-,N/A,,Clear,250,2013-10-16 02:53:00
8:53 PM,33.1,26.1,75,30.10,10.0,Variable,3.5,-,N/A,,Clear,0,2013-10-16 03:53:00
9:53 PM,32.0,25.0,75,30.10,10.0,Variable,3.5,-,N/A,,Clear,0,2013-10-16 04:53:00
10:53 PM,33.1,25.0,72,30.08,10.0,West,4.6,-,N/A,,Clear,280,2013-10-16 05:53:00
11:53 PM,33.1,25.0,72,30.06,10.0,SW,5.8,-,N/A,,Clear,230,2013-10-16 06:53:00